Find STARLINK-37564

NORAD ID: 70567 Constellation: starlink operational
LEOCIRCULARRETROGRADE

Live Position

Loading 3D Globe...

About STARLINK-37564

Description loading...

Upcoming Passes

Passes for default location (London). Set your location on the main map for personalized predictions.

Altitude History

Loading altitude history...

Two-Line Element Set

1 70567C 26097H 26121.89493056 -.00668800 00000+0 -98285-3 0 1216
2 70567 97.2857 316.5570 0007821 257.2268 73.4748 16.05342504 16
Epoch: May 1, 2026 • Age: 28 hours